• In Germany
  • List of Countries
  • For 7 days
  • Water Temperature
  • Satellite Maps
  • Weather Map
  • Weather Widgets
  • user-avatar
    Login

    Hourly Weather Etchmiadzin

    Today, 26 May, Saturday

    Time Temperature Precipitation Wind Pressure Humidity
    00:00 +19°C° 0.2 mm 1 mps 684 mmHg 67%
    01:00 +18°C° 0.1 mm 1 mps 683 mmHg 67%
    02:00 +18°C° 0.1 mm 1 mps 683 mmHg 68%
    03:00 +16°C° 0 mm 1 mps 683 mmHg 70%
    04:00 +18°C° 0.1 mm 1 mps 683 mmHg 68%
    05:00 +19°C° 0.1 mm 1 mps 683 mmHg 67%
    06:00 +20°C° 0.1 mm 1 mps 684 mmHg 65%
    07:00 +21°C° 0.1 mm 1 mps 684 mmHg 60%
    08:00 +23°C° 0.1 mm 2 mps 684 mmHg 55%
    09:00 +25°C° 0 mm 2 mps 684 mmHg 51%
    10:00 +26°C° 0.3 mm 2 mps 685 mmHg 48%
    11:00 +26°C° 0.3 mm 2 mps 685 mmHg 45%
    12:00 +27°C° 0.3 mm 2 mps 685 mmHg 42%
    13:00 +28°C° 0.5 mm 3 mps 685 mmHg 41%
    14:00 +28°C° 0.5 mm 3 mps 685 mmHg 40%
    15:00 +28°C° 0 mm 3 mps 684 mmHg 39%
    16:00 +28°C° 0.2 mm 3 mps 685 mmHg 42%
    17:00 +27°C° 0.2 mm 3 mps 685 mmHg 44%
    18:00 +26°C° 0.2 mm 3 mps 685 mmHg 47%
    19:00 +25°C° 0.4 mm 2 mps 685 mmHg 50%
    20:00 +23°C° 0.4 mm 2 mps 685 mmHg 53%
    21:00 +21°C° 0.4 mm 1 mps 685 mmHg 57%
    22:00 +21°C° 0.3 mm 1 mps 686 mmHg 58%
    23:00 +20°C° 0.3 mm 1 mps 686 mmHg 59%

    Tomorrow, 27 May, Sunday

    Time Temperature Precipitation Wind Pressure Humidity
    00:00 +19°C° 0.3 mm 1 mps 686 mmHg 60%
    01:00 +19°C° 0 mm 1 mps 686 mmHg 60%
    02:00 +18°C° 0 mm 1 mps 686 mmHg 61%
    03:00 +18°C° 0 mm 1 mps 686 mmHg 62%
    04:00 +19°C° 0 mm 1 mps 687 mmHg 61%
    05:00 +20°C° 0 mm 1 mps 687 mmHg 60%
    06:00 +21°C° 0 mm 1 mps 688 mmHg 59%
    07:00 +22°C° 0 mm 1 mps 688 mmHg 53%
    08:00 +24°C° 0 mm 1 mps 689 mmHg 47%
    09:00 +26°C° 0 mm 2 mps 689 mmHg 41%
    10:00 +27°C° 0 mm 2 mps 689 mmHg 38%
    11:00 +28°C° 0 mm 2 mps 689 mmHg 36%
    12:00 +29°C° 0 mm 2 mps 689 mmHg 33%
    13:00 +29°C° 0.2 mm 2 mps 689 mmHg 33%
    14:00 +29°C° 0.2 mm 2 mps 689 mmHg 33%
    15:00 +30°C° 0.2 mm 2 mps 689 mmHg 34%
    16:00 +29°C° 0.3 mm 2 mps 689 mmHg 39%
    17:00 +28°C° 0.3 mm 2 mps 689 mmHg 43%
    18:00 +27°C° 0.3 mm 2 mps 690 mmHg 48%
    19:00 +25°C° 0.7 mm 2 mps 690 mmHg 55%
    20:00 +22°C° 0.7 mm 3 mps 690 mmHg 62%
    21:00 +21°C° 0.7 mm 3 mps 690 mmHg 69%
    22:00 +20°C° 0.2 mm 2 mps 690 mmHg 72%
    23:00 +19°C° 0.2 mm 2 mps 690 mmHg 74%

    Day after tomorrow, 28 May, Monday

    Time Temperature Precipitation Wind Pressure Humidity
    00:00 +19°C° 0.2 mm 2 mps 690 mmHg 77%
    01:00 +18°C° 0.1 mm 2 mps 690 mmHg 78%
    02:00 +18°C° 0.1 mm 2 mps 690 mmHg 78%
    03:00 +19°C° 0.1 mm 1 mps 690 mmHg 79%
    04:00 +19°C° 0.1 mm 1 mps 690 mmHg 76%
    05:00 +20°C° 0.1 mm 1 mps 690 mmHg 74%
    06:00 +20°C° 0.1 mm 1 mps 690 mmHg 71%
    07:00 +22°C° 0 mm 1 mps 689 mmHg 63%
    08:00 +24°C° 0 mm 1 mps 689 mmHg 55%
    09:00 +26°C° 0 mm 1 mps 689 mmHg 47%
    10:00 +27°C° 0 mm 2 mps 689 mmHg 44%
    11:00 +28°C° 0 mm 2 mps 688 mmHg 40%
    12:00 +29°C° 0 mm 2 mps 688 mmHg 37%
    13:00 +30°C° 0 mm 2 mps 688 mmHg 35%
    14:00 +30°C° 0 mm 2 mps 687 mmHg 34%
    15:00 +31°C° 0 mm 2 mps 687 mmHg 33%
    16:00 +30°C° 0.1 mm 2 mps 687 mmHg 36%
    17:00 +29°C° 0.1 mm 1 mps 686 mmHg 39%
    18:00 +29°C° 0.1 mm 1 mps 686 mmHg 42%
    19:00 +27°C° 0.3 mm 1 mps 687 mmHg 47%
    20:00 +25°C° 0.3 mm 1 mps 687 mmHg 51%
    21:00 +23°C° 0.3 mm 1 mps 687 mmHg 56%
    22:00 +23°C° 0.3 mm 1 mps 687 mmHg 57%
    23:00 +22°C° 0.3 mm 1 mps 686 mmHg 59%

    29 May, Tuesday

    Time Temperature Precipitation Wind Pressure Humidity
    00:00 +22°C° 0.3 mm 1 mps 686 mmHg 61%
    01:00 +21°C° 0.2 mm 1 mps 686 mmHg 62%
    02:00 +21°C° 0.2 mm 1 mps 686 mmHg 63%
    03:00 +21°C° 0.2 mm 1 mps 686 mmHg 65%
    04:00 +21°C° 0.1 mm 1 mps 686 mmHg 65%
    05:00 +21°C° 0.1 mm 1 mps 686 mmHg 65%
    06:00 +22°C° 0.1 mm 1 mps 686 mmHg 66%
    07:00 +23°C° 0.1 mm 1 mps 686 mmHg 60%
    08:00 +25°C° 0.1 mm 2 mps 686 mmHg 54%
    09:00 +26°C° 0.1 mm 2 mps 686 mmHg 49%
    10:00 +27°C° 0.3 mm 2 mps 686 mmHg 47%
    11:00 +27°C° 0.3 mm 2 mps 686 mmHg 46%
    12:00 +28°C° 0.3 mm 3 mps 685 mmHg 44%
    13:00 +28°C° 0.4 mm 3 mps 685 mmHg 44%
    14:00 +29°C° 0.4 mm 3 mps 685 mmHg 45%
    15:00 +29°C° 0.4 mm 3 mps 685 mmHg 46%
    16:00 +26°C° 2 mm 3 mps 685 mmHg 57%
    17:00 +24°C° 2 mm 3 mps 685 mmHg 68%
    18:00 +21°C° 2 mm 2 mps 685 mmHg 79%
    19:00 +20°C° 1.2 mm 2 mps 685 mmHg 81%
    20:00 +20°C° 1.2 mm 2 mps 686 mmHg 82%
    21:00 +20°C° 1.2 mm 1 mps 686 mmHg 84%
    22:00 +20°C° 0.5 mm 1 mps 686 mmHg 84%
    23:00 +20°C° 0.5 mm 1 mps 686 mmHg 85%

    30 May, Wednesday

    Time Temperature Precipitation Wind Pressure Humidity
    00:00 +19°C° 0.5 mm 1 mps 686 mmHg 86%
    01:00 +19°C° 0.4 mm 1 mps 686 mmHg 86%
    02:00 +18°C° 0.4 mm 2 mps 686 mmHg 86%
    03:00 +17°C° 0.4 mm 2 mps 686 mmHg 87%
    04:00 +18°C° 0.2 mm 2 mps 686 mmHg 85%
    05:00 +18°C° 0.2 mm 2 mps 686 mmHg 83%
    06:00 +18°C° 0.2 mm 2 mps 686 mmHg 80%
    07:00 +20°C° 0 mm 2 mps 686 mmHg 74%
    08:00 +21°C° 0 mm 2 mps 686 mmHg 68%
    09:00 +23°C° 0 mm 2 mps 686 mmHg 62%
    10:00 +25°C° 0.1 mm 3 mps 686 mmHg 58%
    11:00 +26°C° 0.1 mm 3 mps 686 mmHg 54%
    12:00 +27°C° 0.1 mm 3 mps 686 mmHg 49%
    13:00 +27°C° 0.5 mm 3 mps 686 mmHg 48%
    14:00 +28°C° 0.5 mm 3 mps 686 mmHg 46%
    15:00 +28°C° 0.5 mm 3 mps 685 mmHg 45%
    16:00 +27°C° 0.7 mm 3 mps 685 mmHg 49%
    17:00 +27°C° 0.7 mm 3 mps 685 mmHg 52%
    18:00 +26°C° 0.7 mm 2 mps 685 mmHg 56%
    19:00 +24°C° 1.5 mm 2 mps 685 mmHg 62%
    20:00 +23°C° 1.5 mm 2 mps 685 mmHg 69%
    21:00 +20°C° 1.5 mm 2 mps 685 mmHg 75%
    22:00 +20°C° 0.5 mm 2 mps 685 mmHg 76%
    23:00 +19°C° 0.5 mm 2 mps 685 mmHg 77%

    31 May, Thursday

    Time Temperature Precipitation Wind Pressure Humidity
    00:00 +20°C° 0.5 mm 1 mps 684 mmHg 77%
    01:00 +19°C° 0.2 mm 1 mps 684 mmHg 77%
    02:00 +19°C° 0.2 mm 1 mps 684 mmHg 76%
    03:00 +19°C° 0.2 mm 1 mps 683 mmHg 75%
    04:00 +20°C° 0.3 mm 1 mps 683 mmHg 73%
    05:00 +20°C° 0.3 mm 1 mps 683 mmHg 70%
    06:00 +21°C° 0.3 mm 1 mps 683 mmHg 68%
    07:00 +23°C° 0.1 mm 2 mps 683 mmHg 61%
    08:00 +24°C° 0.1 mm 2 mps 683 mmHg 55%
    09:00 +26°C° 0.1 mm 3 mps 683 mmHg 48%
    10:00 +27°C° 0.2 mm 3 mps 682 mmHg 45%
    11:00 +28°C° 0.2 mm 3 mps 682 mmHg 42%
    12:00 +30°C° 0.2 mm 3 mps 682 mmHg 39%
    13:00 +30°C° 0.6 mm 4 mps 681 mmHg 39%
    14:00 +30°C° 0.6 mm 4 mps 681 mmHg 39%
    15:00 +30°C° 0.6 mm 4 mps 681 mmHg 39%
    16:00 +29°C° 0.6 mm 4 mps 681 mmHg 42%
    17:00 +28°C° 0.6 mm 3 mps 681 mmHg 45%
    18:00 +27°C° 0.6 mm 3 mps 681 mmHg 49%
    19:00 +26°C° 1.5 mm 3 mps 681 mmHg 53%
    20:00 +24°C° 1.5 mm 2 mps 682 mmHg 57%
    21:00 +21°C° 1.5 mm 2 mps 682 mmHg 61%
    22:00 +21°C° 0.5 mm 2 mps 682 mmHg 62%
    23:00 +20°C° 0.5 mm 2 mps 682 mmHg 63%
    Show more